Date String (YYYY-MM-DD hh:mm:ss) UTC,Instrument flags,absolute air pressure of the measurement (hPa),sample flow rate (lpm),inlet stack bypass flow (lpm),air temperature of the measurement (°C),ambient temperature measured by the external sensor (°C),aerosol sample conditioner tube jacket temperature (°C),OPC LED temperature (°C),internal box temperature (°C),relative humidity of the measurement (%),span deviation,mass concentration of particles derived from Lorenz-Mie calculation of OPC scattering (μg/m³),mass concentration of particles derived from Lorenz-Mie calculation of OPC scattering (μg/m³),mass concentration of particles derived from Lorenz-Mie calculation of OPC scattering (μg/m³)
DateTimeUTC,F1_M11,P_M11,Q1_M11,Q2_M11,T1_M11,T2_M11,T3_M11,T4_M11,T5_M11,U1_M11,ZSPAN_M11,X0_M11,X2_M11,X1_M11
2024-05-01 16:00:00,SystemResetWarning,0822.1,4.99,000.00,025.6,025.0,000.0,034.0,027.5,014.6,0000.0,0014.75,0004.02,0002.56
2024-05-01 16:01:00,SystemResetWarning,0822.1,4.99,000.00,025.6,025.0,000.0,034.0,027.5,014.6,0000.0,0014.54,0004.09,0002.60
2024-05-01 16:02:00,SystemResetWarning,0822.1,5.01,000.00,025.7,025.0,000.0,034.0,027.5,014.3,0000.0,0014.46,0004.14,0002.62
2024-05-01 16:03:00,SystemResetWarning,0822.1,5.01,000.00,025.7,025.0,000.0,034.0,027.5,014.4,0000.0,0013.36,0004.17,0002.65
2024-05-01 16:04:00,SystemResetWarning,0822.1,5.00,000.00,025.7,025.0,000.0,034.0,027.5,014.8,0000.0,0013.08,0004.18,0002.67
2024-05-01 16:05:00,SystemResetWarning,0822.1,4.99,000.00,025.7,025.1,000.0,034.1,027.5,015.0,0000.0,0013.65,0004.13,0002.67
2024-05-01 16:06:00,SystemResetWarning,0822.1,4.99,000.00,025.7,025.1,000.0,034.1,027.5,015.2,0000.0,0012.67,0004.10,0002.66
2024-05-01 16:07:00,SystemResetWarning,0822.1,5.00,000.00,025.7,025.1,000.0,034.1,027.5,015.5,0000.0,0013.46,0004.14,0002.68
2024-05-01 16:08:00,SystemResetWarning,0822.0,5.01,000.00,025.7,025.1,000.0,034.1,027.5,015.5,0000.0,0013.37,0004.14,0002.69
2024-05-01 16:09:00,SystemResetWarning,0821.9,5.01,000.00,025.7,025.1,000.0,034.1,027.6,015.2,0000.0,0013.42,0004.15,0002.70
2024-05-01 16:10:00,SystemResetWarning,0821.9,4.99,000.00,025.7,025.1,000.0,034.1,027.6,015.3,0000.0,0013.46,0004.15,0002.74
2024-05-01 16:11:00,SystemResetWarning,0821.9,4.99,000.00,025.8,025.1,000.0,034.1,027.6,015.7,0000.0,0013.67,0004.15,0002.76
2024-05-01 16:12:00,SystemResetWarning,0822.0,5.00,000.00,025.8,025.2,000.0,034.1,027.6,015.5,0000.0,0014.74,0004.15,0002.78
2024-05-01 16:13:00,SystemResetWarning,0821.9,5.00,000.00,025.8,025.2,000.0,034.2,027.6,015.0,0000.0,0014.43,0004.15,0002.81
2024-05-01 16:14:00,SystemResetWarning,0821.8,5.00,000.00,025.8,025.2,000.0,034.2,027.6,014.8,0000.0,0014.64,0004.18,0002.83
2024-05-01 16:15:00,SystemResetWarning,0821.8,5.00,000.00,025.8,025.2,000.0,034.2,027.6,015.1,0000.0,0014.10,0004.17,0002.85
2024-05-01 16:16:00,SystemResetWarning,0821.8,5.00,000.00,025.8,025.2,000.0,034.2,027.7,014.9,0000.0,0013.39,0004.21,0002.87
2024-05-01 16:17:00,SystemResetWarning,0821.8,5.00,000.00,025.8,025.2,000.0,034.2,027.7,015.3,0000.0,0013.31,0004.22,0002.91
2024-05-01 16:18:00,SystemResetWarning,0821.8,5.01,000.00,025.8,025.3,000.0,034.2,027.7,015.2,0000.0,0012.56,0004.19,0002.93
2024-05-01 16:19:00,SystemResetWarning,0821.8,5.00,000.00,025.9,025.3,000.0,034.2,027.7,015.1,0000.0,0012.94,0004.16,0002.95
2024-05-01 16:20:00,SystemResetWarning,0821.8,5.00,000.00,025.9,025.3,000.0,034.2,027.7,015.1,0000.0,0012.70,0004.18,0003.00
2024-05-01 16:21:00,SystemResetWarning,0821.7,5.00,000.00,025.9,025.3,000.0,034.3,027.7,015.4,0000.0,0012.31,0004.20,0003.01
2024-05-01 16:22:00,SystemResetWarning,0821.8,5.00,000.00,025.9,025.3,000.0,034.3,027.7,015.6,0000.0,0012.11,0004.22,0003.04
2024-05-01 16:23:00,SystemResetWarning,0821.7,5.00,000.00,025.9,025.3,000.0,034.3,027.7,015.4,0000.0,0011.29,0004.16,0003.02
2024-05-01 16:24:00,SystemResetWarning,0821.6,5.00,000.00,025.9,025.3,000.0,034.3,027.8,015.1,0000.0,0012.52,0004.16,0003.04
2024-05-01 16:25:00,SystemResetWarning,0821.6,5.00,000.00,026.0,025.3,000.0,034.3,027.8,015.4,0000.0,0012.17,0004.12,0003.03
2024-05-01 16:26:00,SystemResetWarning,0821.6,5.00,000.00,026.0,025.4,000.0,034.3,027.8,015.3,0000.0,0013.25,0004.13,0003.02
2024-05-01 16:27:00,SystemResetWarning,0821.7,5.00,000.00,026.0,025.4,000.0,034.3,027.8,015.5,0000.0,0013.81,0004.13,0003.03
2024-05-01 16:28:00,SystemResetWarning,0821.7,4.99,000.00,026.0,025.4,000.0,034.4,027.8,015.2,0000.0,0014.07,0004.17,0003.03
2024-05-01 16:29:00,SystemResetWarning,0821.7,5.00,000.00,026.0,025.4,000.0,034.4,027.9,015.3,0000.0,0014.63,0004.21,0003.06
2024-05-01 16:30:00,SystemResetWarning,0821.6,5.01,000.00,026.0,025.4,000.0,034.4,027.9,015.4,0000.0,0015.03,0004.28,0003.11
2024-05-01 16:31:00,SystemResetWarning,0821.6,5.01,000.00,026.0,025.5,000.0,034.4,027.9,015.1,0000.0,0016.50,0004.29,0003.11
2024-05-01 16:32:00,SystemResetWarning,0821.5,5.00,000.00,026.1,025.5,000.0,034.4,027.9,015.1,0000.0,0016.95,0004.31,0003.12
2024-05-01 16:33:00,SystemResetWarning,0821.9,5.00,000.00,026.1,025.5,000.0,034.4,027.9,015.0,0000.0,0017.91,0004.33,0003.13
2024-05-01 16:34:00,SystemResetWarning,0821.6,5.00,000.00,026.1,025.5,000.0,034.4,027.9,014.9,0000.0,0018.02,0004.34,0003.16
2024-05-01 16:35:00,SystemResetWarning,0821.6,5.00,000.00,026.1,025.5,000.0,034.5,028.0,014.9,0000.0,0017.53,0004.41,0003.17
2024-05-01 16:36:00,SystemResetWarning,0821.6,4.99,000.00,026.1,025.6,000.0,034.5,028.0,015.5,0000.0,0016.93,0004.43,0003.18
2024-05-01 16:37:00,SystemResetWarning,0821.6,4.99,000.00,026.2,025.6,000.0,034.5,028.0,015.6,0000.0,0016.22,0004.42,0003.20
2024-05-01 16:38:00,SystemResetWarning,0821.8,5.00,000.00,026.2,025.6,000.0,034.5,028.0,015.7,0000.0,0016.31,0004.44,0003.21
2024-05-01 16:39:00,SystemResetWarning,0822.0,5.01,000.00,026.2,025.6,000.0,034.5,028.0,015.7,0000.0,0016.78,0004.47,0003.23
2024-05-01 16:40:00,SystemResetWarning,0822.0,5.00,000.00,026.2,025.6,000.0,034.5,028.0,015.5,0000.0,0017.38,0004.46,0003.23
2024-05-01 16:41:00,SystemResetWarning,0821.9,5.00,000.00,026.2,025.6,000.0,034.5,028.0,015.5,0000.0,0016.88,0004.48,0003.21
2024-05-01 16:42:00,SystemResetWarning,0822.0,5.01,000.00,026.2,025.7,000.0,034.6,028.1,015.1,0000.0,0015.93,0004.50,0003.21
2024-05-01 16:43:00,SystemResetWarning,0821.6,5.01,000.00,026.2,025.7,000.0,034.6,028.1,015.3,0000.0,0015.26,0004.47,0003.22
2024-05-01 16:44:00,SystemResetWarning,0821.4,4.99,000.00,026.3,025.7,000.0,034.6,028.1,015.5,0000.0,0014.77,0004.48,0003.22
2024-05-01 16:45:00,SystemResetWarning,0821.3,4.98,000.00,026.3,025.7,000.0,034.6,028.1,015.2,0000.0,0014.49,0004.52,0003.22
2024-05-01 16:46:00,SystemResetWarning,0821.3,5.02,000.00,026.3,025.7,000.0,034.6,028.1,015.1,0000.0,0013.89,0004.51,0003.21
2024-05-01 16:47:00,SystemResetWarning,0821.3,5.01,000.00,026.3,025.7,000.0,034.6,028.1,015.1,0000.0,0014.10,0004.51,0003.21
2024-05-01 16:48:00,SystemResetWarning,0821.2,4.99,000.00,026.3,025.7,000.0,034.6,028.1,015.2,0000.0,0014.69,0004.52,0003.21
2024-05-01 16:49:00,SystemResetWarning,0821.3,4.98,000.00,026.3,025.7,000.0,034.7,028.1,015.1,0000.0,0013.58,0004.52,0003.23
2024-05-01 16:50:00,SystemResetWarning,0821.3,5.01,000.00,026.3,025.7,000.0,034.7,028.1,015.1,0000.0,0012.85,0004.48,0003.25
2024-05-01 16:51:00,SystemResetWarning,0821.3,5.00,000.00,026.4,025.7,000.0,034.7,028.2,015.4,0000.0,0012.02,0004.52,0003.28
2024-05-01 16:52:00,SystemResetWarning,0821.3,5.00,000.00,026.4,025.8,000.0,034.7,028.2,015.0,0000.0,0012.00,0004.53,0003.29
2024-05-01 16:53:00,SystemResetWarning,0821.3,5.00,000.00,026.4,025.8,000.0,034.7,028.2,015.0,0000.0,0011.74,0004.51,0003.29
2024-05-01 16:54:00,SystemResetWarning,0821.3,5.00,000.00,026.4,025.8,000.0,034.7,028.2,015.1,0000.0,0011.38,0004.52,0003.30
2024-05-01 16:55:00,SystemResetWarning,0821.3,4.99,000.00,026.4,025.8,000.0,034.8,028.2,014.8,0000.0,0011.20,0004.55,0003.29
2024-05-01 16:56:00,SystemResetWarning,0821.3,5.01,000.00,026.4,025.8,000.0,034.8,028.2,014.8,0000.0,0011.93,0004.55,0003.29
2024-05-01 16:57:00,SystemResetWarning,0821.3,5.01,000.00,026.4,025.8,000.0,034.8,028.2,014.9,0000.0,0011.66,0004.52,0003.29
2024-05-01 16:58:00,SystemResetWarning,0821.2,5.01,000.00,026.4,025.8,000.0,034.8,028.2,015.2,0000.0,0011.51,0004.49,0003.29
2024-05-01 16:59:00,SystemResetWarning,0821.2,5.00,000.00,026.4,025.8,000.0,034.8,028.2,014.8,0000.0,0011.65,0004.51,0003.28
